WZZ488R LIME-EPWA

Flight info

Callsign WZZ488R
Flight time 1h 40m
Altitude 19000
Route OSKOR L615 NEVNI/N0456F360 DCT TAGIP DCT DIBAX DCT SUMIR DCT ALESE/N0458F350 DCT MALUG DCT INGID DCT LEDVA DCT NETIR DCT KOTEK DCT LOGDA
Aircraft A21N/M-SDE2E3FGHIRWXY/LB1

Departure

Time 2026-04-30 07:19
Airport Il Caravaggio International Airport (LIME)

Arrival

Time 2026-04-30 08:59
Airport Warsaw Chopin Airport (EPWA)
Time Latitude Longitude Altitude Speed Heading
2026-04-30 06:50 45.66694 9.69804 786 ft 0 kts 195°
2026-04-30 07:08 45.66701 9.69806 786 ft 2 kts 195°
2026-04-30 07:09 45.66716 9.69812 786 ft 2 kts 195°
2026-04-30 07:09 45.66730 9.69817 787 ft 2 kts 195°
2026-04-30 07:09 45.66744 9.69823 787 ft 1 kts 195°
2026-04-30 07:09 45.66754 9.69826 787 ft 2 kts 187°
2026-04-30 07:10 45.66768 9.69822 787 ft 2 kts 150°
2026-04-30 07:10 45.66779 9.69808 787 ft 2 kts 120°
2026-04-30 07:10 45.66783 9.69797 787 ft 1 kts 104°
2026-04-30 07:10 45.66784 9.69789 787 ft 0 kts 104°
2026-04-30 07:13 45.66781 9.69805 787 ft 4 kts 104°
2026-04-30 07:13 45.66770 9.69864 787 ft 6 kts 105°
2026-04-30 07:13 45.66757 9.69935 787 ft 8 kts 105°
2026-04-30 07:14 45.66738 9.70031 787 ft 10 kts 105°
2026-04-30 07:14 45.66719 9.70136 787 ft 11 kts 104°
2026-04-30 07:14 45.66698 9.70251 787 ft 12 kts 105°
2026-04-30 07:14 45.66676 9.70370 787 ft 12 kts 105°
2026-04-30 07:15 45.66651 9.70499 787 ft 17 kts 105°
2026-04-30 07:15 45.66619 9.70672 786 ft 18 kts 105°
2026-04-30 07:15 45.66586 9.70848 785 ft 18 kts 105°
2026-04-30 07:15 45.66554 9.71026 783 ft 18 kts 105°
2026-04-30 07:16 45.66507 9.71205 780 ft 19 kts 111°
2026-04-30 07:16 45.66469 9.71398 777 ft 20 kts 105°
2026-04-30 07:16 45.66441 9.71590 773 ft 19 kts 90°
2026-04-30 07:16 45.66469 9.71776 770 ft 15 kts 76°
2026-04-30 07:17 45.66460 9.71935 768 ft 14 kts 107°
2026-04-30 07:17 45.66432 9.72083 766 ft 16 kts 105°
2026-04-30 07:17 45.66377 9.72399 763 ft 13 kts 96°
2026-04-30 07:18 45.66435 9.72453 763 ft 11 kts 338°
2026-04-30 07:18 45.66475 9.72368 764 ft 11 kts 288°
2026-04-30 07:18 45.66543 9.71993 768 ft 75 kts 285°
2026-04-30 07:18 45.66731 9.70961 787 ft 139 kts 284°
2026-04-30 07:19 45.67026 9.69388 900 ft 180 kts 285°
2026-04-30 07:19 45.67377 9.67637 1479 ft 188 kts 284°
2026-04-30 07:19 45.67317 9.65835 2191 ft 183 kts 240°
2026-04-30 07:19 45.66399 9.64719 2700 ft 181 kts 192°
2026-04-30 07:20 45.65109 9.64656 3065 ft 191 kts 172°
2026-04-30 07:20 45.63736 9.64838 3422 ft 207 kts 171°
2026-04-30 07:20 45.62251 9.65075 3776 ft 224 kts 170°
2026-04-30 07:20 45.60726 9.65821 4054 ft 242 kts 140°
2026-04-30 07:21 45.59778 9.67814 4471 ft 255 kts 103°
2026-04-30 07:21 45.59813 9.70319 5122 ft 260 kts 77°
2026-04-30 07:21 45.60273 9.72815 5921 ft 262 kts 74°
2026-04-30 07:21 45.60727 9.75300 6684 ft 264 kts 75°
2026-04-30 07:22 45.61496 9.80494 8090 ft 272 kts 78°
2026-04-30 07:22 45.61826 9.83144 8738 ft 277 kts 78°
2026-04-30 07:22 45.62142 9.85862 9396 ft 281 kts 79°
2026-04-30 07:23 45.62454 9.88634 10055 ft 284 kts 79°
2026-04-30 07:23 45.62949 9.91345 10620 ft 287 kts 64°
2026-04-30 07:23 45.63922 9.93880 10954 ft 301 kts 57°
2026-04-30 07:23 45.65044 9.96461 11246 ft 316 kts 56°
2026-04-30 07:24 45.66231 9.99238 11507 ft 332 kts 57°
2026-04-30 07:24 45.67426 10.02122 11770 ft 346 kts 58°
2026-04-30 07:24 45.68650 10.05153 12031 ft 360 kts 58°
2026-04-30 07:24 45.69907 10.08312 12272 ft 374 kts 58°
2026-04-30 07:25 45.71200 10.11589 12535 ft 384 kts 58°
2026-04-30 07:25 45.72499 10.14908 13031 ft 388 kts 58°
2026-04-30 07:25 45.73815 10.18284 13571 ft 390 kts 58°
2026-04-30 07:25 45.75138 10.21685 14122 ft 392 kts 58°
2026-04-30 07:26 45.76454 10.25072 14640 ft 394 kts 58°
2026-04-30 07:26 45.77792 10.28520 15126 ft 396 kts 58°
2026-04-30 07:26 45.79123 10.31953 15641 ft 398 kts 58°
2026-04-30 07:26 45.80464 10.35417 16138 ft 400 kts 58°
2026-04-30 07:27 45.81820 10.38926 16585 ft 403 kts 58°
2026-04-30 07:27 45.83163 10.42410 17047 ft 405 kts 58°
2026-04-30 07:27 45.84536 10.45974 17494 ft 407 kts 58°
2026-04-30 07:27 45.85891 10.49498 17926 ft 408 kts 58°
2026-04-30 07:28 45.87263 10.53073 18332 ft 410 kts 58°
2026-04-30 07:28 45.88634 10.56651 18951 ft 406 kts 58°
2026-04-30 07:28 45.89960 10.60118 19741 ft 398 kts 58°
2026-04-30 07:28 45.91298 10.63618 20198 ft 399 kts 58°
2026-04-30 07:29 45.92654 10.67104 20537 ft 402 kts 57°
2026-04-30 07:29 45.94146 10.70513 20911 ft 404 kts 53°
2026-04-30 07:29 45.95734 10.73801 21264 ft 406 kts 52°
2026-04-30 07:29 45.97360 10.77111 21625 ft 408 kts 52°
2026-04-30 07:30 46.00644 10.83797 22335 ft 412 kts 52°
2026-04-30 07:30 46.02286 10.87152 22681 ft 414 kts 52°
2026-04-30 07:30 46.03953 10.90564 23021 ft 415 kts 52°
2026-04-30 07:31 46.05593 10.93929 23367 ft 416 kts 52°
2026-04-30 07:31 46.07257 10.97351 23710 ft 418 kts 52°
2026-04-30 07:31 46.08925 11.00783 24009 ft 420 kts 52°
2026-04-30 07:31 46.10605 11.04241 24310 ft 421 kts 52°
2026-04-30 07:32 46.12287 11.07705 24613 ft 423 kts 52°
2026-04-30 07:32 46.13952 11.11135 24913 ft 424 kts 52°
2026-04-30 07:32 46.15655 11.14654 25209 ft 426 kts 52°
2026-04-30 07:32 46.17339 11.18142 25475 ft 428 kts 52°
2026-04-30 07:33 46.19027 11.21644 25730 ft 430 kts 52°
2026-04-30 07:33 46.20739 11.25204 26022 ft 430 kts 52°
2026-04-30 07:33 46.22430 11.28722 26313 ft 431 kts 52°
2026-04-30 07:33 46.24136 11.32278 26653 ft 430 kts 52°
2026-04-30 07:34 46.25750 11.35884 27056 ft 429 kts 55°
2026-04-30 07:34 46.27224 11.39591 27453 ft 428 kts 58°
2026-04-30 07:34 46.28630 11.43367 27814 ft 427 kts 58°
2026-04-30 07:34 46.30027 11.47155 28188 ft 425 kts 58°
2026-04-30 07:35 46.31418 11.50931 28423 ft 427 kts 58°
2026-04-30 07:35 46.32803 11.54694 28661 ft 428 kts 58°
2026-04-30 07:35 46.34205 11.58516 29001 ft 427 kts 58°
2026-04-30 07:35 46.35585 11.62285 29391 ft 425 kts 58°
2026-04-30 07:36 46.36955 11.66030 29740 ft 424 kts 59°
2026-04-30 07:36 46.38336 11.69808 30072 ft 423 kts 59°
2026-04-30 07:36 46.39691 11.73528 30409 ft 422 kts 59°
2026-04-30 07:36 46.41057 11.77276 30732 ft 421 kts 59°
2026-04-30 07:37 46.42424 11.81031 31012 ft 421 kts 59°
2026-04-30 07:37 46.43779 11.84762 31301 ft 420 kts 58°
2026-04-30 07:37 46.45121 11.88463 31573 ft 419 kts 58°
2026-04-30 07:37 46.46481 11.92210 31830 ft 419 kts 58°
2026-04-30 07:38 46.47820 11.95911 32089 ft 418 kts 58°
2026-04-30 07:38 46.49165 11.99632 32361 ft 417 kts 58°
2026-04-30 07:38 46.50513 12.03369 32620 ft 417 kts 58°
2026-04-30 07:38 46.51844 12.07062 32847 ft 417 kts 58°
2026-04-30 07:39 46.53176 12.10765 33069 ft 417 kts 58°
2026-04-30 07:39 46.54525 12.14518 33294 ft 417 kts 58°
2026-04-30 07:39 46.55854 12.18222 33495 ft 417 kts 58°
2026-04-30 07:39 46.57192 12.21956 33650 ft 419 kts 58°
2026-04-30 07:40 46.58530 12.25698 33799 ft 421 kts 58°
2026-04-30 07:40 46.59882 12.29482 33994 ft 421 kts 58°
2026-04-30 07:40 46.61223 12.33240 34196 ft 421 kts 58°
2026-04-30 07:40 46.62559 12.36995 34369 ft 422 kts 58°
2026-04-30 07:41 46.63912 12.40798 34561 ft 422 kts 58°
2026-04-30 07:41 46.65243 12.44554 34695 ft 423 kts 58°
2026-04-30 07:41 46.66584 12.48338 34795 ft 426 kts 58°
2026-04-30 07:41 46.67944 12.52172 34933 ft 427 kts 58°
2026-04-30 07:42 46.69336 12.55967 35094 ft 426 kts 56°
2026-04-30 07:42 46.70853 12.59646 35218 ft 426 kts 53°
2026-04-30 07:42 46.72507 12.63224 35207 ft 425 kts 51°
2026-04-30 07:43 46.76043 12.70060 35177 ft 424 kts 50°
2026-04-30 07:43 46.79631 12.76878 35172 ft 424 kts 49°
2026-04-30 07:44 46.83208 12.83700 35174 ft 424 kts 50°
2026-04-30 07:44 46.86771 12.90518 35277 ft 423 kts 50°
2026-04-30 07:45 46.90318 12.97324 35193 ft 421 kts 50°
2026-04-30 07:45 46.93854 13.04133 35176 ft 421 kts 50°
2026-04-30 07:46 46.97361 13.10898 35176 ft 420 kts 50°
2026-04-30 07:46 47.00898 13.17739 35183 ft 420 kts 50°
2026-04-30 07:47 47.04398 13.24530 35174 ft 420 kts 50°
2026-04-30 07:47 47.07890 13.31316 35187 ft 419 kts 50°
2026-04-30 07:48 47.11378 13.38114 35185 ft 418 kts 50°
2026-04-30 07:48 47.14881 13.44959 35193 ft 418 kts 50°
2026-04-30 07:49 47.18340 13.51736 35190 ft 418 kts 50°
2026-04-30 07:49 47.21820 13.58574 35211 ft 417 kts 50°
2026-04-30 07:50 47.25265 13.65364 35217 ft 417 kts 50°
2026-04-30 07:50 47.28718 13.72214 35220 ft 416 kts 51°
2026-04-30 07:51 47.32118 13.79053 35215 ft 416 kts 51°
2026-04-30 07:51 47.35518 13.85916 35224 ft 416 kts 51°
2026-04-30 07:52 47.38918 13.92796 35228 ft 415 kts 51°
2026-04-30 07:52 47.42306 13.99677 35256 ft 416 kts 51°
2026-04-30 07:53 47.45682 14.06547 35270 ft 415 kts 51°
2026-04-30 07:53 47.49058 14.13438 35283 ft 414 kts 51°
2026-04-30 07:54 47.52428 14.20325 35294 ft 415 kts 51°
2026-04-30 07:54 47.55781 14.27202 35298 ft 415 kts 51°
2026-04-30 07:55 47.59129 14.34087 35301 ft 413 kts 51°
2026-04-30 07:55 47.62494 14.41018 35322 ft 414 kts 51°
2026-04-30 07:56 47.65837 14.47926 35321 ft 414 kts 51°
2026-04-30 07:56 47.69168 14.54826 35325 ft 414 kts 51°
2026-04-30 07:57 47.72505 14.61751 35309 ft 414 kts 51°
2026-04-30 07:57 47.75829 14.68672 35289 ft 413 kts 52°
2026-04-30 07:58 47.79155 14.75611 35288 ft 412 kts 52°
2026-04-30 07:58 47.82458 14.82522 35276 ft 412 kts 51°
2026-04-30 07:59 47.85777 14.89483 35303 ft 414 kts 52°
2026-04-30 07:59 47.89093 14.96459 35325 ft 414 kts 51°
2026-04-30 08:00 47.94048 15.06912 35346 ft 412 kts 52°
2026-04-30 08:00 47.97351 15.13898 35346 ft 414 kts 52°
2026-04-30 08:01 48.00648 15.20892 35335 ft 412 kts 52°
2026-04-30 08:01 48.03936 15.27890 35344 ft 413 kts 52°
2026-04-30 08:02 48.08843 15.38363 35328 ft 412 kts 51°
2026-04-30 08:03 48.15414 15.52449 35365 ft 414 kts 52°
2026-04-30 08:04 48.18703 15.59525 35372 ft 413 kts 51°
2026-04-30 08:04 48.21959 15.66547 35406 ft 413 kts 52°
2026-04-30 08:05 48.25230 15.73623 35403 ft 415 kts 52°
2026-04-30 08:05 48.28511 15.80736 35417 ft 414 kts 52°
2026-04-30 08:06 48.31764 15.87810 35412 ft 414 kts 52°
2026-04-30 08:06 48.35021 15.94914 35422 ft 415 kts 52°
2026-04-30 08:07 48.38284 16.02044 35422 ft 416 kts 52°
2026-04-30 08:07 48.41553 16.09207 35422 ft 415 kts 52°
2026-04-30 08:08 48.44812 16.16374 35419 ft 415 kts 52°
2026-04-30 08:08 48.48043 16.23492 35409 ft 414 kts 52°
2026-04-30 08:09 48.51289 16.30667 35404 ft 415 kts 52°
2026-04-30 08:09 48.54507 16.37794 35414 ft 414 kts 52°
2026-04-30 08:10 48.57756 16.45011 35410 ft 415 kts 52°
2026-04-30 08:10 48.60962 16.52156 35411 ft 414 kts 52°
2026-04-30 08:11 48.64169 16.59321 35402 ft 414 kts 52°
2026-04-30 08:11 48.67395 16.66556 35411 ft 415 kts 53°
2026-04-30 08:12 48.70596 16.73749 35408 ft 415 kts 53°
2026-04-30 08:12 48.73929 16.80871 35426 ft 415 kts 50°
2026-04-30 08:13 48.77482 16.87720 35411 ft 414 kts 49°
2026-04-30 08:13 48.81044 16.94567 35423 ft 414 kts 49°
2026-04-30 08:14 48.84579 17.01386 35422 ft 414 kts 49°
2026-04-30 08:14 48.88114 17.08235 35422 ft 415 kts 49°
2026-04-30 08:15 48.91669 17.15132 35426 ft 415 kts 49°
2026-04-30 08:15 48.95222 17.22046 35423 ft 416 kts 49°
2026-04-30 08:16 48.98760 17.28954 35421 ft 416 kts 50°
2026-04-30 08:16 49.02314 17.35906 35426 ft 415 kts 50°
2026-04-30 08:17 49.05846 17.42835 35438 ft 416 kts 50°
2026-04-30 08:17 49.09366 17.49760 35426 ft 415 kts 49°
2026-04-30 08:18 49.12892 17.56715 35424 ft 414 kts 50°
2026-04-30 08:18 49.16393 17.63636 35413 ft 414 kts 49°
2026-04-30 08:19 49.19893 17.70581 35420 ft 413 kts 50°
2026-04-30 08:19 49.23389 17.77527 35391 ft 414 kts 50°
2026-04-30 08:20 49.26899 17.84518 35384 ft 414 kts 50°
2026-04-30 08:20 49.30376 17.91462 35389 ft 413 kts 50°
2026-04-30 08:21 49.33859 17.98442 35390 ft 413 kts 50°
2026-04-30 08:21 49.37332 18.05418 35396 ft 411 kts 50°
2026-04-30 08:22 49.40797 18.12397 35381 ft 413 kts 50°
2026-04-30 08:22 49.44257 18.19381 35377 ft 412 kts 50°
2026-04-30 08:23 49.47716 18.26386 35372 ft 413 kts 50°
2026-04-30 08:23 49.51164 18.33385 35380 ft 413 kts 50°
2026-04-30 08:24 49.54607 18.40392 35386 ft 412 kts 50°
2026-04-30 08:24 49.58046 18.47417 35380 ft 412 kts 50°
2026-04-30 08:25 49.61485 18.54455 35392 ft 412 kts 50°
2026-04-30 08:25 49.64911 18.61494 35390 ft 411 kts 50°
2026-04-30 08:26 49.68368 18.68521 35393 ft 411 kts 49°
2026-04-30 08:26 49.72189 18.75124 35392 ft 409 kts 44°
2026-04-30 08:27 49.76140 18.81364 35403 ft 409 kts 44°
2026-04-30 08:27 49.80131 18.87657 35367 ft 410 kts 44°
2026-04-30 08:28 49.84116 18.93961 35369 ft 411 kts 44°
2026-04-30 08:28 49.88072 19.00233 35364 ft 410 kts 44°
2026-04-30 08:29 49.92044 19.06553 35369 ft 410 kts 44°
2026-04-30 08:29 49.96007 19.12871 35387 ft 410 kts 44°
2026-04-30 08:30 49.99976 19.19223 35391 ft 410 kts 44°
2026-04-30 08:30 50.03930 19.25559 35414 ft 410 kts 44°
2026-04-30 08:31 50.07883 19.31906 35414 ft 409 kts 44°
2026-04-30 08:31 50.11816 19.38241 35414 ft 409 kts 44°
2026-04-30 08:32 50.15772 19.44630 35409 ft 408 kts 44°
2026-04-30 08:32 50.19679 19.50961 35419 ft 409 kts 44°
2026-04-30 08:33 50.23632 19.57375 35413 ft 409 kts 44°
2026-04-30 08:33 50.27540 19.63736 35404 ft 409 kts 44°
2026-04-30 08:34 50.31463 19.70138 35408 ft 408 kts 44°
2026-04-30 08:34 50.35379 19.76542 35409 ft 408 kts 44°
2026-04-30 08:35 50.39283 19.82945 35408 ft 408 kts 44°
2026-04-30 08:35 50.43175 19.89343 35404 ft 407 kts 45°
2026-04-30 08:36 50.47069 19.95766 35405 ft 407 kts 45°
2026-04-30 08:36 50.50969 20.02213 35409 ft 407 kts 45°
2026-04-30 08:37 50.54845 20.08645 35394 ft 408 kts 45°
2026-04-30 08:37 50.56767 20.11836 35201 ft 406 kts 45°
2026-04-30 08:37 50.58719 20.15066 34946 ft 403 kts 44°
2026-04-30 08:37 50.60738 20.18091 34559 ft 400 kts 40°
2026-04-30 08:38 50.62879 20.20895 34064 ft 398 kts 37°
2026-04-30 08:38 50.65126 20.23457 33477 ft 400 kts 33°
2026-04-30 08:38 50.67471 20.25765 33147 ft 392 kts 30°
2026-04-30 08:38 50.69875 20.27818 32797 ft 393 kts 27°
2026-04-30 08:39 50.72382 20.29632 32000 ft 399 kts 24°
2026-04-30 08:39 50.74967 20.31259 31166 ft 403 kts 22°
2026-04-30 08:39 50.77591 20.32864 30259 ft 405 kts 22°
2026-04-30 08:39 50.80194 20.34450 29401 ft 405 kts 22°
2026-04-30 08:40 50.82841 20.36058 28510 ft 406 kts 22°
2026-04-30 08:40 50.85481 20.37661 27778 ft 403 kts 22°
2026-04-30 08:40 50.88090 20.39248 27240 ft 397 kts 22°
2026-04-30 08:40 50.90647 20.40803 26685 ft 393 kts 22°
2026-04-30 08:41 50.93198 20.42359 26137 ft 389 kts 22°
2026-04-30 08:41 50.95735 20.43906 25579 ft 385 kts 22°
2026-04-30 08:41 50.98194 20.45410 25020 ft 383 kts 22°
2026-04-30 08:41 51.00679 20.46930 24442 ft 380 kts 22°
2026-04-30 08:42 51.03167 20.48455 23833 ft 378 kts 22°
2026-04-30 08:42 51.05610 20.49952 23245 ft 375 kts 22°
2026-04-30 08:42 51.08034 20.51439 22659 ft 371 kts 22°
2026-04-30 08:42 51.10430 20.52912 22073 ft 367 kts 22°
2026-04-30 08:43 51.12787 20.54361 21493 ft 364 kts 22°
2026-04-30 08:43 51.15138 20.55810 20909 ft 360 kts 22°
2026-04-30 08:43 51.17479 20.57252 20325 ft 357 kts 22°
2026-04-30 08:43 51.19802 20.58684 19742 ft 354 kts 22°
2026-04-30 08:44 51.22067 20.60084 19170 ft 351 kts 22°
2026-04-30 08:44 51.24341 20.61490 18598 ft 349 kts 22°
2026-04-30 08:44 51.26596 20.62888 18042 ft 346 kts 22°
2026-04-30 08:44 51.28808 20.64259 17490 ft 344 kts 22°
2026-04-30 08:45 51.31055 20.65654 16924 ft 343 kts 22°
2026-04-30 08:45 51.33266 20.67029 16376 ft 342 kts 22°
2026-04-30 08:45 51.35470 20.68398 15832 ft 341 kts 22°
2026-04-30 08:45 51.37677 20.69773 15280 ft 340 kts 22°
2026-04-30 08:46 51.39867 20.71137 14737 ft 339 kts 22°
2026-04-30 08:46 51.42048 20.72497 14188 ft 339 kts 22°
2026-04-30 08:46 51.44233 20.73861 13621 ft 337 kts 22°
2026-04-30 08:46 51.46418 20.75225 13052 ft 336 kts 21°
2026-04-30 08:47 51.48573 20.76572 12488 ft 334 kts 21°
2026-04-30 08:47 51.50726 20.77919 11925 ft 332 kts 21°
2026-04-30 08:47 51.52853 20.79251 11363 ft 330 kts 21°
2026-04-30 08:47 51.54984 20.80588 10858 ft 327 kts 21°
2026-04-30 08:48 51.57079 20.81903 10501 ft 319 kts 21°
2026-04-30 08:48 51.59107 20.83178 10246 ft 309 kts 21°
2026-04-30 08:48 51.61087 20.84424 9981 ft 299 kts 21°
2026-04-30 08:48 51.62987 20.85621 9722 ft 289 kts 21°
2026-04-30 08:49 51.64807 20.86768 9461 ft 274 kts 21°
2026-04-30 08:49 51.66525 20.87853 9198 ft 261 kts 21°
2026-04-30 08:49 51.68199 20.88911 8934 ft 255 kts 21°
2026-04-30 08:49 51.69836 20.89946 8669 ft 254 kts 21°
2026-04-30 08:50 51.71472 20.90980 8405 ft 254 kts 21°
2026-04-30 08:50 51.73114 20.92020 8144 ft 254 kts 21°
2026-04-30 08:50 51.74751 20.93057 7902 ft 253 kts 21°
2026-04-30 08:50 51.76395 20.94098 7676 ft 252 kts 21°
2026-04-30 08:51 51.78018 20.95128 7441 ft 252 kts 21°
2026-04-30 08:51 51.79642 20.96159 7212 ft 252 kts 21°
2026-04-30 08:51 51.81282 20.97201 6979 ft 250 kts 21°
2026-04-30 08:51 51.82874 20.98213 6740 ft 243 kts 21°
2026-04-30 08:52 51.84347 20.99150 6526 ft 237 kts 21°
2026-04-30 08:52 51.85869 21.00120 6290 ft 231 kts 21°
2026-04-30 08:52 51.87364 21.01074 6055 ft 225 kts 20°
2026-04-30 08:52 51.88806 21.01994 5820 ft 220 kts 20°
2026-04-30 08:53 51.90208 21.02888 5588 ft 216 kts 20°
2026-04-30 08:53 51.91584 21.03768 5353 ft 212 kts 20°
2026-04-30 08:53 51.92934 21.04632 5117 ft 207 kts 20°
2026-04-30 08:53 51.94259 21.05481 4883 ft 203 kts 20°
2026-04-30 08:54 51.95554 21.06310 4647 ft 198 kts 20°
2026-04-30 08:54 51.96820 21.07121 4411 ft 194 kts 20°
2026-04-30 08:54 51.98079 21.07927 4171 ft 190 kts 20°
2026-04-30 08:54 51.99278 21.08694 4004 ft 181 kts 20°
2026-04-30 08:55 52.00426 21.09427 3805 ft 175 kts 18°
2026-04-30 08:55 52.01601 21.09524 3554 ft 174 kts 346°
2026-04-30 08:55 52.02736 21.08801 3276 ft 175 kts 335°
2026-04-30 08:55 52.03807 21.07902 3013 ft 173 kts 332°
2026-04-30 08:56 52.04732 21.07083 2810 ft 173 kts 332°
2026-04-30 08:56 52.05779 21.06155 2577 ft 171 kts 332°
2026-04-30 08:56 52.06804 21.05252 2344 ft 157 kts 332°
2026-04-30 08:56 52.07708 21.04458 2128 ft 145 kts 333°
2026-04-30 08:57 52.08599 21.03682 1941 ft 144 kts 332°
2026-04-30 08:57 52.09462 21.02927 1743 ft 138 kts 334°
2026-04-30 08:57 52.10314 21.02184 1561 ft 137 kts 333°
2026-04-30 08:57 52.11153 21.01452 1379 ft 137 kts 331°
2026-04-30 08:58 52.11998 21.00714 1188 ft 136 kts 331°
2026-04-30 08:58 52.12843 20.99977 994 ft 136 kts 330°
2026-04-30 08:58 52.13674 20.99249 808 ft 135 kts 331°
2026-04-30 08:58 52.14521 20.98507 615 ft 135 kts 330°
2026-04-30 08:59 52.15340 20.97773 414 ft 133 kts 334°
2026-04-30 08:59 52.16125 20.97102 366 ft 109 kts 332°
2026-04-30 08:59 52.16645 20.96650 366 ft 58 kts 331°
2026-04-30 08:59 52.16949 20.96384 366 ft 44 kts 330°
2026-04-30 09:00 52.17173 20.96248 366 ft 24 kts 355°
2026-04-30 09:00 52.17283 20.96246 366 ft 10 kts 360°
2026-04-30 09:00 52.17357 20.96250 366 ft 10 kts 13°
2026-04-30 09:00 52.17410 20.96333 366 ft 11 kts 60°
2026-04-30 09:01 52.17450 20.96449 366 ft 12 kts 61°
2026-04-30 09:01 52.17474 20.96521 366 ft 5 kts 64°
2026-04-30 09:01 52.17461 20.96570 366 ft 5 kts 145°
2026-04-30 09:01 52.17421 20.96610 366 ft 7 kts 150°
2026-04-30 09:02 52.17277 20.96735 366 ft 11 kts 152°
2026-04-30 09:02 52.17239 20.96788 366 ft 3 kts 94°
2026-04-30 09:02 52.17249 20.96832 366 ft 4 kts 62°
2026-04-30 09:03 52.17266 20.96884 366 ft 4 kts 62°
2026-04-30 09:03 52.17271 20.96901 366 ft 0 kts 62°